This is the latest recevied weather packets stored in our database for station/object KC8YYF. If no packets are shown the sender has not sent any weather packets the latest 10 day(s).
| Time | Temp. | Humidity | Pressure | Rain* | Wind** | Luminosity | Snow |
|---|---|---|---|---|---|---|---|
| 1778125949 | 7.78° C | 82% | 1015.2 hPa | 0 mm | - | 0 W/m² | - |
| 1778125647 | 8.33° C | 81% | 1015.3 hPa | 0 mm | - | 0 W/m² | - |
| 1778125343 | 8.33° C | 81% | 1015.3 hPa | 0 mm | - | 0 W/m² | - |
| 1778125042 | 8.89° C | 81% | 1015.3 hPa | 0 mm | - | 0 W/m² | - |
| 1778124739 | 8.89° C | 79% | 1015.4 hPa | 0 mm | - | 0 W/m² | - |
| 1778124437 | 8.89° C | 78% | 1015.4 hPa | 0 mm | - | 0 W/m² | - |
| 1778124132 | 8.89° C | 76% | 1015.4 hPa | 0 mm | - | 0 W/m² | - |
| 1778123829 | 8.89° C | 76% | 1015.5 hPa | 0 mm | - | 0 W/m² | - |
| 1778123526 | 8.89° C | 75% | 1015.3 hPa | 0 mm | - | 0 W/m² | - |
| 1778123223 | 9.44° C | 78% | 1015.3 hPa | 0 mm | - | 0 W/m² | - |
| 1778122920 | 9.44° C | 78% | 1015.2 hPa | 0 mm | - | 0 W/m² | - |
| 1778122617 | 9.44° C | 76% | 1015.2 hPa | 0 mm | - | 0 W/m² | - |
| 1778122314 | 9.44° C | 72% | 1015 hPa | 0 mm | - | 0 W/m² | - |
| 1778122012 | 10° C | 70% | 1015.1 hPa | 0 mm | - | 0 W/m² | - |
| 1778121709 | 10° C | 70% | 1014.9 hPa | 0 mm | - | 0 W/m² | - |
| 1778121404 | 10° C | 69% | 1015.1 hPa | 0 mm | - | 0 W/m² | - |
| 1778121102 | 10° C | 69% | 1015 hPa | 0 mm | - | 0 W/m² | - |
| 1778120799 | 10° C | 70% | 1015.1 hPa | 0 mm | - | 0 W/m² | - |
| 1778120495 | 10° C | 73% | 1015.1 hPa | 0 mm | - | 0 W/m² | - |
| 1778120191 | 10° C | 72% | 1014.7 hPa | 0 mm | - | 0 W/m² | - |
| 1778119887 | 10° C | 75% | 1014.5 hPa | 0 mm | - | 0 W/m² | - |
| 1778119585 | 10° C | 74% | 1014.6 hPa | 0 mm | - | 0 W/m² | - |
| 1778119281 | 10° C | 70% | 1014.7 hPa | 0 mm | - | 0 W/m² | - |
| 1778118980 | 10° C | 68% | 1014.6 hPa | 0 mm | - | 0 W/m² | - |
| 1778118677 | 10° C | 75% | 1014.6 hPa | 0 mm | - | 0 W/m² | - |
* Rain latest hour (hover to see other rain measurements)
** Current wind speed in m/s (hover to see current wind gust speed)